Flag for Colombia Weather past 2 weeks in Villavicencio, Colombia

Now
66 °F

Scattered clouds.


Feels Like: 66 °F
Forecast: N/A
Wind: 8 mph from South

Location: Bogota / Eldorado

Current Time: Mar 6, 2015 at 4:16:47 PM

Latest Report: Mar 6, 2015 at 4:00 PM


Visibility: N/A

Pressure: 30.21 "Hg

Humidity: 46%

Dew point: 45 °F

Location of VillavicencioLocation

Historic Weather in Villavicencio — Graph

°F

Villavicencio temperature yesterday

Maximum temperature yesterday: 66 °F (at 11:00 AM)
Minimum temperature yesterday: 48 °F (at 3:00 AM)
Average temperature yesterday: 58 °F

Past Weeks' High & Low Weather Summary

 TemperatureHumidityPressure
High73 °F (Feb 21, 1:00 PM)100% (Feb 21, 5:00 AM)30.40 "Hg (Feb 21, 5:00 AM)
Low41 °F (Feb 20, 7:00 AM)27% (Feb 23, 2:00 PM)30.18 "Hg (Mar 3, 4:00 PM)
Average58 °F72%30.29 "Hg
* Reported Feb 19 3:00 PM — Mar 6 3:00 PM, Villavicencio, Weather by CustomWeather, © 2015

Note: Actual official high and low records may vary slightly from our data, if they occured in-between our weather recording intervals... More about our weather records

Advertising

Villavicencio weather history for previous 24 hours

 ConditionsComfort  
Time TempWeatherWind HumidityBarometerVisibility
3:00 PM
Fri, Mar 6
63 °FPartly sunny.6 mph64%30.23 "HgN/A
2:00 PM63 °FPartly sunny.9 mph68%30.25 "HgN/A
1:00 PM66 °FScattered clouds.2 mph49%30.27 "HgN/A
12:00 PM63 °FPartly sunny.3 mph56%30.30 "HgN/A
11:00 AM63 °FPartly sunny.3 mph49%30.32 "HgN/A
10:00 AM64 °FScattered clouds.10 mph49%30.32 "HgN/A
9:00 AM61 °FScattered clouds.3 mph59%30.32 "HgN/A
8:00 AM57 °FPartly sunny.7 mph77%30.32 "HgN/A
7:00 AM55 °FScattered clouds.7 mph82%30.30 "HgN/A
6:00 AM52 °FPassing clouds.3 mph88%30.28 "HgN/A
5:00 AM54 °FPassing clouds.5 mph82%30.27 "HgN/A
4:00 AM52 °FPassing clouds.3 mph88%30.27 "HgN/A
3:00 AM52 °FPassing clouds.5 mph88%30.26 "HgN/A
2:00 AM52 °FPassing clouds.3 mph88%30.28 "HgN/A
1:00 AM55 °FPassing clouds.2 mph77%30.30 "HgN/A
12:00 AM57 °FPassing clouds.7 mph63%30.32 "HgN/A
11:00 PM
Thu, Mar 5
55 °FPassing clouds.3 mph77%30.34 "HgN/A
10:00 PM55 °FPassing clouds.5 mph77%30.33 "HgN/A
9:00 PM57 °FPassing clouds.2 mph72%30.32 "HgN/A
8:00 PM57 °FPassing clouds.3 mph77%30.29 "HgN/A
7:00 PM61 °FPassing clouds.6 mph68%30.26 "HgN/A
6:00 PM61 °FScattered showers. Partly sunny.9 mph72%30.23 "HgN/A
5:00 PM64 °FScattered clouds.7 mph60%30.21 "HgN/A
4:00 PM66 °FScattered clouds.12 mph60%30.20 "Hg6 mi
Weather by CustomWeather, © 2015

See weather overviewHow to use our weather pages